Home > Weather > Buffalo > Past weeks

Flag for USA Past Weather in Buffalo, New York, USA — Yesterday and Last 2 Weeks

Now
71 °F

Light rain. Partly cloudy.


Feels Like: 67 °F
Forecast: 73 / 81 °F
Wind: 8 mph from Southwest

Location: Greater Buffalo International Airport

Current Time: Aug 25, 2016 at 7:47:37 AM

Latest Report: Aug 25, 2016 at 6:54 AM


Visibility: 7 mi

Pressure: 29.94 "Hg

Humidity: 93%

Dew Point: 69 °F

Location of BuffaloLocation

Past Weather in Buffalo — Graph

°F

Buffalo Temperature Yesterday

Maximum temperature yesterday: 84 °F (at 2:54 PM)
Minimum temperature yesterday: 61 °F (at 4:54 AM)
Average temperature yesterday: 74 °F

High & Low Weather Summary for the Past Weeks

 TemperatureHumidityPressure
High91 °F (Aug 13, 1:54 PM)96% (Aug 25, 5:54 AM)30.29 "Hg (Aug 25, 5:54 AM)
Low57 °F (Aug 23, 3:54 AM)38% (Aug 23, 1:54 PM)29.62 "Hg (Aug 21, 3:54 AM)
Average76 °F69%29.99 "Hg
* Reported Aug 10 6:54 AM — Aug 25 6:54 AM, Buffalo, Weather by CustomWeather, © 2016

Note: Actual official high and low records may vary slightly from our data, if they occured in-between our weather recording intervals... More about our weather records

Advertising

Buffalo Weather History for the Previous 24 Hours

Scroll right to see more
 ConditionsComfort  
Time TempWeatherWind HumidityBarometerVisibility
6:54 AM
Thu, Aug 25
71 °FLight rain. Partly cloudy.8 mph93%29.94 "Hg7 mi
5:54 AM71 °FLight rain. Fog.9 mph96%29.94 "Hg2 mi
4:54 AM72 °FHeavy rain. Fog.13 mph93%29.94 "Hg1 mi
4:00 AM72 °FHeavy rain. Fog.13 mph87%29.96 "Hg1 mi
2:54 AM78 °FPassing clouds.15 mph60%29.92 "Hg10 mi
1:54 AM77 °FPassing clouds.12 mph58%29.93 "Hg10 mi
12:54 AM78 °FPassing clouds.12 mph56%29.97 "Hg10 mi
11:54 PM
Wed, Aug 24
77 °FPassing clouds.9 mph54%29.98 "Hg10 mi
10:54 PM76 °FPassing clouds.8 mph60%30.00 "Hg10 mi
9:54 PM76 °FPassing clouds.7 mph64%30.02 "Hg10 mi
8:54 PM76 °FBroken clouds.6 mph62%30.04 "Hg10 mi
7:54 PM78 °FBroken clouds.8 mph54%30.04 "Hg10 mi
6:54 PM79 °FPartly sunny.8 mph52%30.04 "Hg10 mi
5:54 PM81 °FBroken clouds.14 mph47%30.06 "Hg10 mi
4:54 PM83 °FPartly sunny.12 mph43%30.07 "Hg10 mi
3:54 PM84 °FScattered clouds.13 mph45%30.08 "Hg10 mi
2:54 PM84 °FPartly sunny.9 mph45%30.10 "Hg10 mi
1:54 PM83 °FBroken clouds.9 mph43%30.12 "Hg10 mi
12:54 PM82 °FPartly sunny.13 mph46%30.14 "Hg10 mi
11:54 AM81 °FPartly sunny.15 mph44%30.16 "Hg10 mi
10:54 AM80 °FPartly sunny.10 mph47%30.18 "Hg10 mi
9:54 AM76 °FPartly sunny.7 mph56%30.19 "Hg10 mi
8:54 AM71 °FPartly sunny.10 mph63%30.21 "Hg10 mi
7:54 AM66 °FPartly sunny.5 mph75%30.24 "Hg10 mi
Weather by CustomWeather, © 2016

See weather overviewHow to use our weather pages